Year,Month,Day,Hour,Minute,Value (Times are PST for temperature in C)
2012,08,06,00,00,22.00
2012,08,06,00,01,22.00
2012,08,06,00,02,22.00
2012,08,06,00,03,22.00
2012,08,06,00,04,22.00
2012,08,06,00,05,22.00
2012,08,06,00,06,22.00
2012,08,06,00,07,22.00
2012,08,06,00,08,21.90
2012,08,06,00,09,21.90
2012,08,06,00,10,21.90
2012,08,06,00,11,21.90
2012,08,06,00,12,21.90
2012,08,06,00,13,21.90
2012,08,06,00,14,21.90
2012,08,06,00,15,21.90
2012,08,06,00,16,21.90
2012,08,06,00,17,21.90
2012,08,06,00,18,21.90
2012,08,06,00,19,21.80
2012,08,06,00,20,21.80
2012,08,06,00,21,21.80
2012,08,06,00,22,21.90
2012,08,06,00,23,21.90
2012,08,06,00,24,21.90
2012,08,06,00,25,21.90
2012,08,06,00,26,21.90
2012,08,06,00,27,21.90
2012,08,06,00,28,21.90
2012,08,06,00,29,21.90
2012,08,06,00,30,21.90
2012,08,06,00,31,21.90
2012,08,06,00,32,21.90
2012,08,06,00,33,21.90
2012,08,06,00,34,21.90
2012,08,06,00,35,21.90
2012,08,06,00,36,21.90
2012,08,06,00,37,21.80
2012,08,06,00,38,21.80
2012,08,06,00,39,21.80
2012,08,06,00,40,21.80
2012,08,06,00,41,21.80
2012,08,06,00,42,21.70
2012,08,06,00,43,21.70
2012,08,06,00,44,21.70
2012,08,06,00,45,21.70
2012,08,06,00,46,21.60
2012,08,06,00,47,21.60
2012,08,06,00,48,21.60
2012,08,06,00,49,21.60
2012,08,06,00,50,21.50
2012,08,06,00,51,21.50
2012,08,06,00,52,21.50
2012,08,06,00,53,21.50
2012,08,06,00,54,21.50
2012,08,06,00,55,21.50
2012,08,06,00,56,21.60
2012,08,06,00,57,21.60
2012,08,06,00,58,21.70
2012,08,06,00,59,21.70
2012,08,06,01,00,21.80
2012,08,06,01,01,21.90
2012,08,06,01,02,22.00
2012,08,06,01,03,22.00
2012,08,06,01,04,22.10
2012,08,06,01,05,22.20
2012,08,06,01,06,22.30
2012,08,06,01,07,22.40
2012,08,06,01,08,22.50
2012,08,06,01,09,22.60
2012,08,06,01,10,22.70
2012,08,06,01,11,22.80
2012,08,06,01,12,22.90
2012,08,06,01,13,22.90
2012,08,06,01,14,23.00
2012,08,06,01,15,23.00
2012,08,06,01,16,23.10
2012,08,06,01,17,23.20
2012,08,06,01,18,23.20
2012,08,06,01,19,23.20
2012,08,06,01,20,23.30
2012,08,06,01,21,23.30
2012,08,06,01,22,23.30
2012,08,06,01,23,23.40
2012,08,06,01,24,23.40
2012,08,06,01,25,23.40
2012,08,06,01,26,23.40
2012,08,06,01,27,23.40
2012,08,06,01,28,23.40
2012,08,06,01,29,23.40
2012,08,06,01,30,23.40
2012,08,06,01,31,23.50
2012,08,06,01,32,23.50
2012,08,06,01,33,23.50
2012,08,06,01,34,23.50
2012,08,06,01,35,23.50
2012,08,06,01,36,23.50
2012,08,06,01,37,23.40
2012,08,06,01,38,23.40
2012,08,06,01,39,23.40
2012,08,06,01,40,23.40
2012,08,06,01,41,23.40
2012,08,06,01,42,23.30
2012,08,06,01,43,23.30
2012,08,06,01,44,23.30
2012,08,06,01,45,23.30
2012,08,06,01,46,23.30
2012,08,06,01,47,23.30
2012,08,06,01,48,23.20
2012,08,06,01,49,23.20
2012,08,06,01,50,23.20
2012,08,06,01,51,23.20
2012,08,06,01,52,23.20
2012,08,06,01,53,23.20
2012,08,06,01,54,23.20
2012,08,06,01,55,23.10
2012,08,06,01,56,23.10
2012,08,06,01,57,23.10
2012,08,06,01,58,23.10
2012,08,06,01,59,23.10
2012,08,06,02,00,23.10
2012,08,06,02,01,23.10
2012,08,06,02,02,23.00
2012,08,06,02,03,23.00
2012,08,06,02,04,23.00
2012,08,06,02,05,22.90
2012,08,06,02,06,22.90
2012,08,06,02,07,22.90
2012,08,06,02,08,22.90
2012,08,06,02,09,22.90
2012,08,06,02,10,22.80
2012,08,06,02,11,22.80
2012,08,06,02,12,22.80
2012,08,06,02,13,22.80
2012,08,06,02,14,22.80
2012,08,06,02,15,22.80
2012,08,06,02,16,22.70
2012,08,06,02,17,22.70
2012,08,06,02,18,22.70
2012,08,06,02,19,22.70
2012,08,06,02,20,22.70
2012,08,06,02,21,22.70
2012,08,06,02,22,22.60
2012,08,06,02,23,22.60
2012,08,06,02,24,22.60
2012,08,06,02,25,22.60
2012,08,06,02,26,22.60
2012,08,06,02,27,22.60
2012,08,06,02,28,22.60
2012,08,06,02,29,22.60
2012,08,06,02,30,22.60
2012,08,06,02,31,22.60
2012,08,06,02,32,22.50
2012,08,06,02,33,22.50
2012,08,06,02,34,22.50
2012,08,06,02,35,22.50
2012,08,06,02,36,22.40
2012,08,06,02,37,22.40
2012,08,06,02,38,22.40
2012,08,06,02,39,22.40
2012,08,06,02,40,22.40
2012,08,06,02,41,22.30
2012,08,06,02,42,22.30
2012,08,06,02,43,22.30
2012,08,06,02,44,22.30
2012,08,06,02,45,22.30
2012,08,06,02,46,22.30
2012,08,06,02,47,22.30
2012,08,06,02,48,22.30
2012,08,06,02,49,22.30
2012,08,06,02,50,22.30
2012,08,06,02,51,22.30
2012,08,06,02,52,22.20
2012,08,06,02,53,22.20
2012,08,06,02,54,22.20
2012,08,06,02,55,22.20
2012,08,06,02,56,22.20
2012,08,06,02,57,22.20
2012,08,06,02,58,22.20
2012,08,06,02,59,22.20
2012,08,06,03,00,22.20
2012,08,06,03,01,22.20
2012,08,06,03,02,22.20
2012,08,06,03,06,22.10
2012,08,06,03,07,22.10
2012,08,06,03,08,22.10
2012,08,06,03,09,22.10
2012,08,06,03,10,22.10
2012,08,06,03,11,22.10
2012,08,06,03,12,22.00
2012,08,06,03,13,22.00
2012,08,06,03,14,22.00
2012,08,06,03,15,22.00
2012,08,06,03,16,22.00
2012,08,06,03,17,22.00
2012,08,06,03,18,22.00
2012,08,06,03,19,22.00
2012,08,06,03,20,21.90
2012,08,06,03,21,21.90
2012,08,06,03,22,21.90
2012,08,06,03,23,21.90
2012,08,06,03,24,21.90
2012,08,06,03,25,21.90
2012,08,06,03,26,21.80
2012,08,06,03,27,21.80
2012,08,06,03,28,21.80
2012,08,06,03,29,21.80
2012,08,06,03,30,21.80
2012,08,06,03,31,21.80
2012,08,06,03,32,21.80
2012,08,06,03,33,21.70
2012,08,06,03,34,21.70
2012,08,06,03,35,21.70
2012,08,06,03,36,21.70
2012,08,06,03,37,21.70
2012,08,06,03,38,21.70
2012,08,06,03,39,21.70
2012,08,06,03,40,21.70
2012,08,06,03,41,21.70
2012,08,06,03,42,21.60
2012,08,06,03,43,21.60
2012,08,06,03,44,21.60
2012,08,06,03,45,21.60
2012,08,06,03,46,21.50
2012,08,06,03,47,21.50
2012,08,06,03,48,21.50
2012,08,06,03,49,21.40
2012,08,06,03,50,21.40
2012,08,06,03,51,21.40
2012,08,06,03,52,21.30
2012,08,06,03,53,21.30
2012,08,06,03,54,21.30
2012,08,06,03,55,21.20
2012,08,06,03,56,21.20
2012,08,06,03,57,21.20
2012,08,06,03,58,21.20
2012,08,06,03,59,21.20
2012,08,06,04,00,21.10
2012,08,06,04,01,21.10
2012,08,06,04,02,21.10
2012,08,06,04,03,21.10
2012,08,06,04,04,21.00
2012,08,06,04,05,21.00
2012,08,06,04,06,21.00
2012,08,06,04,07,21.00
2012,08,06,04,08,21.00
2012,08,06,04,09,21.00
2012,08,06,04,10,20.90
2012,08,06,04,11,20.90
2012,08,06,04,12,20.90
2012,08,06,04,13,20.90
2012,08,06,04,14,20.90
2012,08,06,04,15,20.90
2012,08,06,04,16,20.90
2012,08,06,04,17,20.90
2012,08,06,04,18,20.90
2012,08,06,04,19,20.80
2012,08,06,04,20,20.80
2012,08,06,04,21,20.80
2012,08,06,04,22,20.80
2012,08,06,04,23,20.80
2012,08,06,04,24,20.80
2012,08,06,04,25,20.80
2012,08,06,04,26,20.80
2012,08,06,04,27,20.70
2012,08,06,04,28,20.70
2012,08,06,04,29,20.70
2012,08,06,04,30,20.70
2012,08,06,04,31,20.70
2012,08,06,04,32,20.70
2012,08,06,04,33,20.70
2012,08,06,04,34,20.70
2012,08,06,04,35,20.70
2012,08,06,04,36,20.70
2012,08,06,04,37,20.60
2012,08,06,04,38,20.60
2012,08,06,04,39,20.60
2012,08,06,04,40,20.60
2012,08,06,04,41,20.60
2012,08,06,04,42,20.50
2012,08,06,04,43,20.50
2012,08,06,04,44,20.50
2012,08,06,04,45,20.40
2012,08,06,04,46,20.40
2012,08,06,04,47,20.40
2012,08,06,04,48,20.40
2012,08,06,04,49,20.30
2012,08,06,04,50,20.30
2012,08,06,04,51,20.30
2012,08,06,04,52,20.30
2012,08,06,04,53,20.30
2012,08,06,04,54,20.30
2012,08,06,04,55,20.20
2012,08,06,04,56,20.20
2012,08,06,04,57,20.20
2012,08,06,04,58,20.20
2012,08,06,04,59,20.20
2012,08,06,05,00,20.20
2012,08,06,05,01,20.10
2012,08,06,05,02,20.10
2012,08,06,05,03,20.10
2012,08,06,05,04,20.10
2012,08,06,05,05,20.10
2012,08,06,05,06,20.10
2012,08,06,05,07,20.10
2012,08,06,05,08,20.00
2012,08,06,05,09,20.00
2012,08,06,05,10,20.00
2012,08,06,05,11,19.90
2012,08,06,05,12,19.90
2012,08,06,05,13,19.90
2012,08,06,05,14,19.90
2012,08,06,05,15,19.90
2012,08,06,05,16,19.90
2012,08,06,05,17,19.90
2012,08,06,05,18,19.80
2012,08,06,05,19,19.80
2012,08,06,05,20,19.80
2012,08,06,05,21,19.80
2012,08,06,05,22,19.80
2012,08,06,05,23,19.80
2012,08,06,05,24,19.80
2012,08,06,05,25,19.80
2012,08,06,05,26,19.80
2012,08,06,05,27,19.80
2012,08,06,05,28,19.80
2012,08,06,05,29,19.80
2012,08,06,05,30,19.80
2012,08,06,05,31,19.80
2012,08,06,05,32,19.80
2012,08,06,05,33,19.80
2012,08,06,05,34,19.80
2012,08,06,05,35,19.80
2012,08,06,05,36,19.80
2012,08,06,05,37,19.80
2012,08,06,05,38,19.80
2012,08,06,05,39,19.80
2012,08,06,05,40,19.80
2012,08,06,05,41,19.80
2012,08,06,05,42,19.70
2012,08,06,05,43,19.70
2012,08,06,05,44,19.70
2012,08,06,05,45,19.70
2012,08,06,05,46,19.70
2012,08,06,05,47,19.60
2012,08,06,05,48,19.60
2012,08,06,05,49,19.60
2012,08,06,05,50,19.60
2012,08,06,05,51,19.60
2012,08,06,05,52,19.60
2012,08,06,05,53,19.60
2012,08,06,05,54,19.60
2012,08,06,05,55,19.60
2012,08,06,05,56,19.50
2012,08,06,05,57,19.50
2012,08,06,05,58,19.50
2012,08,06,05,59,19.50
2012,08,06,06,00,19.50
2012,08,06,06,01,19.40
2012,08,06,06,02,19.40
2012,08,06,06,03,19.40
2012,08,06,06,04,19.40
2012,08,06,06,05,19.40
2012,08,06,06,06,19.40
2012,08,06,06,07,19.40
2012,08,06,06,08,19.40
2012,08,06,06,09,19.40
2012,08,06,06,10,19.40
2012,08,06,06,11,19.40
2012,08,06,06,12,19.40
2012,08,06,06,13,19.30
2012,08,06,06,14,19.30
2012,08,06,06,15,19.30
2012,08,06,06,16,19.30
2012,08,06,06,17,19.30
2012,08,06,06,18,19.30
2012,08,06,06,19,19.30
2012,08,06,06,20,19.30
2012,08,06,06,21,19.30
2012,08,06,06,22,19.30
2012,08,06,06,23,19.40
2012,08,06,06,24,19.40
2012,08,06,06,25,19.40
2012,08,06,06,26,19.40
2012,08,06,06,27,19.50
2012,08,06,06,28,19.50
2012,08,06,06,29,19.50
2012,08,06,06,30,19.60
2012,08,06,06,31,19.60
2012,08,06,06,32,19.70
2012,08,06,06,33,19.70
2012,08,06,06,34,19.80
2012,08,06,06,35,19.80
2012,08,06,06,36,19.90
2012,08,06,06,37,19.90
2012,08,06,06,38,19.90
2012,08,06,06,39,20.00
2012,08,06,06,40,20.00
2012,08,06,06,41,20.10
2012,08,06,06,42,20.10
2012,08,06,06,43,20.10
2012,08,06,06,44,20.10
2012,08,06,06,45,20.10
2012,08,06,06,46,20.20
2012,08,06,06,47,20.20
2012,08,06,06,48,20.20
2012,08,06,06,49,20.30
2012,08,06,06,50,20.30
2012,08,06,06,51,20.30
2012,08,06,06,52,20.40
2012,08,06,06,53,20.40
2012,08,06,06,54,20.50
2012,08,06,06,55,20.50
2012,08,06,06,56,20.60
2012,08,06,06,57,20.60
2012,08,06,06,58,20.70
2012,08,06,06,59,20.70
2012,08,06,07,00,20.70
2012,08,06,07,01,20.80
2012,08,06,07,02,20.80
2012,08,06,07,03,20.80
2012,08,06,07,04,20.90
2012,08,06,07,05,20.90
2012,08,06,07,06,20.90
2012,08,06,07,07,20.90
2012,08,06,07,08,21.00
2012,08,06,07,09,21.00
2012,08,06,07,10,21.00
2012,08,06,07,11,21.00
2012,08,06,07,12,21.00
2012,08,06,07,13,21.00
2012,08,06,07,14,21.00
2012,08,06,07,15,20.90
2012,08,06,07,16,20.90
2012,08,06,07,17,20.90
2012,08,06,07,18,20.90
2012,08,06,07,19,20.90
2012,08,06,07,20,20.90
2012,08,06,07,21,20.90
2012,08,06,07,22,20.80
2012,08,06,07,23,20.80
2012,08,06,07,24,20.80
2012,08,06,07,25,20.80
2012,08,06,07,26,20.80
2012,08,06,07,27,20.80
2012,08,06,07,28,20.80
2012,08,06,07,29,20.70
2012,08,06,07,30,20.70
2012,08,06,07,31,20.70
2012,08,06,07,32,20.70
2012,08,06,07,33,20.60
2012,08,06,07,34,20.60
2012,08,06,07,35,20.60
2012,08,06,07,36,20.60
2012,08,06,07,37,20.60
2012,08,06,07,38,20.60
2012,08,06,07,39,20.50
2012,08,06,07,40,20.50
2012,08,06,07,41,20.50
2012,08,06,07,42,20.40
2012,08,06,07,43,20.40
2012,08,06,07,44,20.40
2012,08,06,07,45,20.40
2012,08,06,07,46,20.40
2012,08,06,07,47,20.40
2012,08,06,07,48,20.40
2012,08,06,07,49,20.40
2012,08,06,07,50,20.40
2012,08,06,07,51,20.40
2012,08,06,07,52,20.40
2012,08,06,07,53,20.40
2012,08,06,07,54,20.40
2012,08,06,07,55,20.40
2012,08,06,07,56,20.40
2012,08,06,07,57,20.40
2012,08,06,07,58,20.50
2012,08,06,07,59,20.50
2012,08,06,08,00,20.50
2012,08,06,08,01,20.50
2012,08,06,08,02,20.50
2012,08,06,08,03,20.60
2012,08,06,08,04,20.60
2012,08,06,08,05,20.60
2012,08,06,08,06,20.60
2012,08,06,08,07,20.60
2012,08,06,08,08,20.70
2012,08,06,08,09,20.70
2012,08,06,08,10,20.70
2012,08,06,08,11,20.80
2012,08,06,08,12,20.80
2012,08,06,08,13,20.90
2012,08,06,08,14,21.00
2012,08,06,08,15,21.10
2012,08,06,08,16,21.20
2012,08,06,08,17,21.20
2012,08,06,08,18,21.30
2012,08,06,08,19,21.40
2012,08,06,08,20,21.50
2012,08,06,08,21,21.60
2012,08,06,08,22,21.70
2012,08,06,08,23,21.80
2012,08,06,08,24,21.80
2012,08,06,08,25,21.90
2012,08,06,08,26,21.90
2012,08,06,08,27,22.00
2012,08,06,08,28,22.10
2012,08,06,08,29,22.10
2012,08,06,08,30,22.20
2012,08,06,08,31,22.20
2012,08,06,08,32,22.30
2012,08,06,08,33,22.30
2012,08,06,08,34,22.40
2012,08,06,08,35,22.40
2012,08,06,08,36,22.50
2012,08,06,08,37,22.50
2012,08,06,08,38,22.60
2012,08,06,08,39,22.60
2012,08,06,08,40,22.50
2012,08,06,08,41,22.50
2012,08,06,08,42,22.50
2012,08,06,08,43,22.60
2012,08,06,08,44,22.60
2012,08,06,08,45,22.60
2012,08,06,08,46,22.60
2012,08,06,08,47,22.60
2012,08,06,08,48,22.50
2012,08,06,08,49,22.50
2012,08,06,08,50,22.50
2012,08,06,08,51,22.40
2012,08,06,08,52,22.30
2012,08,06,08,53,22.30
2012,08,06,08,54,22.20
2012,08,06,08,55,22.10
2012,08,06,08,56,22.00
2012,08,06,08,57,21.90
2012,08,06,08,58,21.80
2012,08,06,08,59,21.70
2012,08,06,09,00,21.50
2012,08,06,09,01,21.40
2012,08,06,09,02,21.30
2012,08,06,09,03,21.30
2012,08,06,09,04,21.20
2012,08,06,09,05,21.20
2012,08,06,09,06,21.30
2012,08,06,09,07,21.30
2012,08,06,09,08,21.30
2012,08,06,09,09,21.30
2012,08,06,09,10,21.30
2012,08,06,09,11,21.30
2012,08,06,09,12,21.30
2012,08,06,09,13,21.30
2012,08,06,09,14,21.30
2012,08,06,09,15,21.30
2012,08,06,09,16,21.30
2012,08,06,09,17,21.30
2012,08,06,09,18,21.30
2012,08,06,09,19,21.30
2012,08,06,09,20,21.30
2012,08,06,09,21,21.30
2012,08,06,09,22,21.40
2012,08,06,09,23,21.40
2012,08,06,09,24,21.40
2012,08,06,09,25,21.40
2012,08,06,09,26,21.50
2012,08,06,09,27,21.50
2012,08,06,09,28,21.50
2012,08,06,09,29,21.50
2012,08,06,09,30,21.60
2012,08,06,09,31,21.60
2012,08,06,09,32,21.60
2012,08,06,09,33,21.50
2012,08,06,09,34,21.50
2012,08,06,09,35,21.50
2012,08,06,09,36,21.40
2012,08,06,09,37,21.30
2012,08,06,09,38,21.30
2012,08,06,09,39,21.30
2012,08,06,09,40,21.30
2012,08,06,09,41,21.20
2012,08,06,09,42,21.20
2012,08,06,09,43,21.20
2012,08,06,09,44,21.20
2012,08,06,09,45,21.10
2012,08,06,09,46,21.10
2012,08,06,09,47,21.10
2012,08,06,09,48,21.10
2012,08,06,09,49,21.10
2012,08,06,09,50,21.10
2012,08,06,09,51,21.10
2012,08,06,09,52,21.10
2012,08,06,09,53,21.20
2012,08,06,09,54,21.20
2012,08,06,09,55,21.30
2012,08,06,09,56,21.30
2012,08,06,09,57,21.30
2012,08,06,09,58,21.30
2012,08,06,09,59,21.30
2012,08,06,10,00,21.40
2012,08,06,10,01,21.40
2012,08,06,10,02,21.50
2012,08,06,10,03,21.60
2012,08,06,10,04,21.60
2012,08,06,10,05,21.70
2012,08,06,10,06,21.70
2012,08,06,10,07,21.70
2012,08,06,10,08,21.70
2012,08,06,10,09,21.70
2012,08,06,10,10,21.80
2012,08,06,10,11,21.80
2012,08,06,10,12,21.90
2012,08,06,10,13,22.00
2012,08,06,10,14,22.00
2012,08,06,10,15,22.00
2012,08,06,10,16,22.10
2012,08,06,10,17,22.10
2012,08,06,10,18,22.10
2012,08,06,10,19,22.10
2012,08,06,10,20,22.10
2012,08,06,10,21,22.20
2012,08,06,10,22,22.20
2012,08,06,10,23,22.20
2012,08,06,10,24,22.20
2012,08,06,10,25,22.20
2012,08,06,10,26,22.20
2012,08,06,10,27,22.20
2012,08,06,10,28,22.20
2012,08,06,10,29,22.20
2012,08,06,10,30,22.10
2012,08,06,10,31,22.10
2012,08,06,10,32,22.00
2012,08,06,10,33,22.10
2012,08,06,10,34,22.10
2012,08,06,10,35,22.10
2012,08,06,10,36,22.20
2012,08,06,10,37,22.20
2012,08,06,10,38,22.20
2012,08,06,10,39,22.20
2012,08,06,10,40,22.20
2012,08,06,10,41,22.10
2012,08,06,10,42,22.10
2012,08,06,10,43,22.00
2012,08,06,10,44,21.90
2012,08,06,10,45,21.80
2012,08,06,10,46,21.70
2012,08,06,10,47,21.70
2012,08,06,10,48,21.60
2012,08,06,10,49,21.60
2012,08,06,10,50,21.50
2012,08,06,10,51,21.50
2012,08,06,10,52,21.40
2012,08,06,10,53,21.50
2012,08,06,10,54,21.50
2012,08,06,10,55,21.60
2012,08,06,10,56,21.70
2012,08,06,10,57,21.70
2012,08,06,10,58,21.80
2012,08,06,10,59,21.90
2012,08,06,11,00,22.00
2012,08,06,11,01,22.10
2012,08,06,11,02,22.10
2012,08,06,11,03,22.20
2012,08,06,11,04,22.30
2012,08,06,11,05,22.40
2012,08,06,11,06,22.50
2012,08,06,11,07,22.60
2012,08,06,11,08,22.70
2012,08,06,11,09,22.80
2012,08,06,11,10,22.90
2012,08,06,11,11,23.00
2012,08,06,11,12,23.10
2012,08,06,11,13,23.10
2012,08,06,11,14,23.20
2012,08,06,11,15,23.20
2012,08,06,11,16,23.30
2012,08,06,11,17,23.30
2012,08,06,11,18,23.30
2012,08,06,11,19,23.40
2012,08,06,11,20,23.40
2012,08,06,11,21,23.50
2012,08,06,11,22,23.60
2012,08,06,11,23,23.60
2012,08,06,11,24,23.70
2012,08,06,11,25,23.80
2012,08,06,11,26,23.90
2012,08,06,11,27,24.00
2012,08,06,11,28,24.00
2012,08,06,11,29,24.00
2012,08,06,11,30,24.10
2012,08,06,11,31,24.10
2012,08,06,11,32,24.10
2012,08,06,11,33,24.10
2012,08,06,11,34,24.20
2012,08,06,11,35,24.20
2012,08,06,11,36,24.30
2012,08,06,11,37,24.30
2012,08,06,11,38,24.30
2012,08,06,11,39,24.30
2012,08,06,11,40,24.30
2012,08,06,11,41,24.30
2012,08,06,11,42,24.30
2012,08,06,11,43,24.30
2012,08,06,11,44,24.30
2012,08,06,11,45,24.30
2012,08,06,11,46,24.30
2012,08,06,11,47,24.30
2012,08,06,11,48,24.40
2012,08,06,11,49,24.40
2012,08,06,11,50,24.40
2012,08,06,11,51,24.50
2012,08,06,11,52,24.50
2012,08,06,11,53,24.50
2012,08,06,11,54,24.50
2012,08,06,11,55,24.40
2012,08,06,11,56,24.40
2012,08,06,11,57,24.30
2012,08,06,11,58,24.20
2012,08,06,11,59,24.20
2012,08,06,12,00,24.20
2012,08,06,12,01,24.10
2012,08,06,12,02,24.10
2012,08,06,12,03,24.10
2012,08,06,12,04,24.10
2012,08,06,12,05,24.00
2012,08,06,12,06,24.00
2012,08,06,12,07,24.00
2012,08,06,12,08,23.90
2012,08,06,12,09,23.90
2012,08,06,12,10,23.80
2012,08,06,12,11,23.80
2012,08,06,12,12,23.80
2012,08,06,12,13,23.80
2012,08,06,12,14,23.80
2012,08,06,12,15,23.80
2012,08,06,12,16,23.90
2012,08,06,12,17,23.90
2012,08,06,12,18,24.00
2012,08,06,12,19,24.00
2012,08,06,12,20,24.00
2012,08,06,12,21,23.90
2012,08,06,12,22,23.90
2012,08,06,12,23,23.90
2012,08,06,12,24,23.90
2012,08,06,12,25,23.90
2012,08,06,12,26,23.90
2012,08,06,12,27,23.90
2012,08,06,12,28,23.90
2012,08,06,12,29,23.80
2012,08,06,12,30,23.80
2012,08,06,12,31,23.70
2012,08,06,12,32,23.70
2012,08,06,12,33,23.70
2012,08,06,12,34,23.70
2012,08,06,12,35,23.70
2012,08,06,12,36,23.70
2012,08,06,12,37,23.80
2012,08,06,12,38,23.80
2012,08,06,12,39,23.80
2012,08,06,12,40,23.80
2012,08,06,12,41,23.90
2012,08,06,12,42,23.90
2012,08,06,12,43,24.00
2012,08,06,12,44,24.00
2012,08,06,12,45,24.10
2012,08,06,12,46,24.10
2012,08,06,12,47,24.20
2012,08,06,12,48,24.20
2012,08,06,12,49,24.10
2012,08,06,12,50,24.10
2012,08,06,12,51,24.10
2012,08,06,12,52,24.00
2012,08,06,12,53,24.10
2012,08,06,12,54,24.10
2012,08,06,12,55,24.10
2012,08,06,12,56,24.10
2012,08,06,12,57,24.10
2012,08,06,12,58,24.10
2012,08,06,12,59,24.10
2012,08,06,13,00,24.00
2012,08,06,13,01,24.00
2012,08,06,13,02,24.00
2012,08,06,13,03,24.00
2012,08,06,13,04,24.10
2012,08,06,13,05,24.10
2012,08,06,13,06,24.10
2012,08,06,13,07,24.20
2012,08,06,13,08,24.20
2012,08,06,13,09,24.20
2012,08,06,13,10,24.30
2012,08,06,13,11,24.30
2012,08,06,13,12,24.30
2012,08,06,13,13,24.30
2012,08,06,13,14,24.20
2012,08,06,13,15,24.20
2012,08,06,13,16,24.20
2012,08,06,13,17,24.30
2012,08,06,13,18,24.30
2012,08,06,13,19,24.20
2012,08,06,13,20,24.20
2012,08,06,13,21,24.20
2012,08,06,13,22,24.20
2012,08,06,13,23,24.20
2012,08,06,13,24,24.20
2012,08,06,13,25,24.20
2012,08,06,13,26,24.20
2012,08,06,13,27,24.10
2012,08,06,13,28,24.00
2012,08,06,13,29,23.90
2012,08,06,13,30,23.80
2012,08,06,13,31,23.80
2012,08,06,13,32,23.70
2012,08,06,13,33,23.70
2012,08,06,13,34,23.60
2012,08,06,13,35,23.50
2012,08,06,13,36,23.40
2012,08,06,13,37,23.40
2012,08,06,13,38,23.30
2012,08,06,13,39,23.20
2012,08,06,13,40,23.20
2012,08,06,13,41,23.10
2012,08,06,13,42,23.10
2012,08,06,13,43,23.10
2012,08,06,13,44,23.10
2012,08,06,13,45,23.00
2012,08,06,13,46,23.00
2012,08,06,13,47,23.00
2012,08,06,13,48,23.00
2012,08,06,13,49,23.00
2012,08,06,13,50,23.00
2012,08,06,13,51,23.00
2012,08,06,13,52,23.00
2012,08,06,13,53,23.00
2012,08,06,13,54,23.00
2012,08,06,13,55,23.00
2012,08,06,13,56,23.00
2012,08,06,13,57,23.00
2012,08,06,13,58,23.10
2012,08,06,13,59,23.10
2012,08,06,14,00,23.10
2012,08,06,14,01,23.10
2012,08,06,14,02,23.10
2012,08,06,14,03,23.10
2012,08,06,14,04,23.20
2012,08,06,14,05,23.10
2012,08,06,14,06,23.10
2012,08,06,14,07,23.10
2012,08,06,14,08,23.10
2012,08,06,14,09,23.10
2012,08,06,14,10,23.10
2012,08,06,14,11,23.10
2012,08,06,14,12,23.10
2012,08,06,14,13,23.10
2012,08,06,14,14,23.10
2012,08,06,14,15,23.10
2012,08,06,14,16,23.10
2012,08,06,14,17,23.10
2012,08,06,14,18,23.10
2012,08,06,14,19,23.10
2012,08,06,14,20,23.20
2012,08,06,14,21,23.20
2012,08,06,14,22,23.20
2012,08,06,14,23,23.10
2012,08,06,14,24,23.10
2012,08,06,14,25,23.10
2012,08,06,14,26,23.10
2012,08,06,14,27,23.00
2012,08,06,14,28,23.00
2012,08,06,14,29,22.90
2012,08,06,14,30,22.90
2012,08,06,14,31,22.90
2012,08,06,14,32,22.80
2012,08,06,14,33,22.80
2012,08,06,14,34,22.80
2012,08,06,14,35,22.80
2012,08,06,14,36,22.70
2012,08,06,14,37,22.70
2012,08,06,14,38,22.70
2012,08,06,14,39,22.70
2012,08,06,14,40,22.70
2012,08,06,14,41,22.70
2012,08,06,14,42,22.70
2012,08,06,14,43,22.70
2012,08,06,14,44,22.80
2012,08,06,14,45,22.80
2012,08,06,14,46,22.80
2012,08,06,14,47,22.80
2012,08,06,14,48,22.80
2012,08,06,14,49,22.80
2012,08,06,14,50,22.80
2012,08,06,14,51,22.80
2012,08,06,14,52,22.80
2012,08,06,14,53,22.80
2012,08,06,14,54,22.80
2012,08,06,14,55,22.80
2012,08,06,14,56,22.70
2012,08,06,14,57,22.70
2012,08,06,14,58,22.70
2012,08,06,14,59,22.60
2012,08,06,15,00,22.60
2012,08,06,15,01,22.60
2012,08,06,15,02,22.50
2012,08,06,15,03,22.50
2012,08,06,15,04,22.40
2012,08,06,15,05,22.40
2012,08,06,15,06,22.40
2012,08,06,15,07,22.30
2012,08,06,15,08,22.30
2012,08,06,15,09,22.30
2012,08,06,15,10,22.20
2012,08,06,15,11,22.20
2012,08,06,15,12,22.20
2012,08,06,15,13,22.10
2012,08,06,15,14,22.10
2012,08,06,15,15,22.10
2012,08,06,15,16,22.10
2012,08,06,15,17,22.10
2012,08,06,15,18,22.10
2012,08,06,15,19,22.00
2012,08,06,15,20,22.00
2012,08,06,15,21,22.00
2012,08,06,15,22,22.00
2012,08,06,15,23,22.00
2012,08,06,15,24,22.00
2012,08,06,15,25,22.00
2012,08,06,15,26,22.00
2012,08,06,15,27,21.90
2012,08,06,15,28,21.90
2012,08,06,15,29,21.90
2012,08,06,15,30,21.90
2012,08,06,15,31,21.90
2012,08,06,15,32,21.90
2012,08,06,15,33,21.90
2012,08,06,15,34,21.90
2012,08,06,15,35,21.90
2012,08,06,15,36,21.90
2012,08,06,15,37,21.90
2012,08,06,15,38,22.00
2012,08,06,15,39,22.00
2012,08,06,15,40,21.90
2012,08,06,15,41,21.90
2012,08,06,15,42,21.90
2012,08,06,15,43,21.90
2012,08,06,15,44,21.80
2012,08,06,15,45,21.80
2012,08,06,15,46,21.80
2012,08,06,15,47,21.80
2012,08,06,15,48,21.70
2012,08,06,15,49,21.70
2012,08,06,15,50,21.60
2012,08,06,15,51,21.60
2012,08,06,15,52,21.60
2012,08,06,15,53,21.50
2012,08,06,15,54,21.50
2012,08,06,15,55,21.40
2012,08,06,15,56,21.40
2012,08,06,15,57,21.40
2012,08,06,15,58,21.40
2012,08,06,15,59,21.40
2012,08,06,16,00,21.40
2012,08,06,16,01,21.40
2012,08,06,16,02,21.40
2012,08,06,16,03,21.50
2012,08,06,16,04,21.50
2012,08,06,16,05,21.50
2012,08,06,16,06,21.50
2012,08,06,16,07,21.50
2012,08,06,16,08,21.50
2012,08,06,16,09,21.50
2012,08,06,16,10,21.50
2012,08,06,16,11,21.40
2012,08,06,16,12,21.40
2012,08,06,16,13,21.40
2012,08,06,16,14,21.40
2012,08,06,16,15,21.30
2012,08,06,16,16,21.30
2012,08,06,16,17,21.30
2012,08,06,16,18,21.30
2012,08,06,16,19,21.30
2012,08,06,16,20,21.30
2012,08,06,16,21,21.30
2012,08,06,16,22,21.30
2012,08,06,16,23,21.30
2012,08,06,16,24,21.30
2012,08,06,16,25,21.30
2012,08,06,16,26,21.30
2012,08,06,16,27,21.30
2012,08,06,16,28,21.30
2012,08,06,16,29,21.30
2012,08,06,16,30,21.30
2012,08,06,16,31,21.30
2012,08,06,16,32,21.30
2012,08,06,16,33,21.30
2012,08,06,16,34,21.40
2012,08,06,16,35,21.40
2012,08,06,16,36,21.40
2012,08,06,16,37,21.50
2012,08,06,16,38,21.50
2012,08,06,16,39,21.50
2012,08,06,16,40,21.60
2012,08,06,16,41,21.60
2012,08,06,16,42,21.70
2012,08,06,16,43,21.70
2012,08,06,16,44,21.70
2012,08,06,16,45,21.80
2012,08,06,16,46,21.80
2012,08,06,16,47,21.80
2012,08,06,16,48,21.80
2012,08,06,16,49,21.80
2012,08,06,16,50,21.80
2012,08,06,16,51,21.80
2012,08,06,16,52,21.80
2012,08,06,16,53,21.90
2012,08,06,16,54,21.90
2012,08,06,16,55,21.90
2012,08,06,16,56,21.90
2012,08,06,16,57,21.90
2012,08,06,16,58,21.90
2012,08,06,16,59,21.90
2012,08,06,17,00,21.90
2012,08,06,17,01,21.90
2012,08,06,17,02,21.90
2012,08,06,17,03,21.80
2012,08,06,17,04,21.80
2012,08,06,17,05,21.80
2012,08,06,17,06,21.80
2012,08,06,17,07,21.80
2012,08,06,17,08,21.70
2012,08,06,17,09,21.60
2012,08,06,17,10,21.60
2012,08,06,17,11,21.50
2012,08,06,17,12,21.50
2012,08,06,17,13,21.50
2012,08,06,17,14,21.40
2012,08,06,17,15,21.40
2012,08,06,17,16,21.40
2012,08,06,17,17,21.40
2012,08,06,17,18,21.30
2012,08,06,17,19,21.30
2012,08,06,17,20,21.30
2012,08,06,17,21,21.30
2012,08,06,17,22,21.30